Terminal Aerodrome Forecast
Issued by NWS Honolulu, HI

Home | Current Version | Previous Version | Text Only | Print | Product List | Glossary On
Versions: 1 2 3 4 5 6 7 8 9 10 11 12 13 14 15 16 17 18 19 20 21 22 23 24 25 26 27 28 29 30 31 32 33 34 35 36 37 38 39 40 41 42 43 44 45 46 47 48 49 50
000
FTPA31 PHFO 070306 AAA
TAFHNL
TAF AMD
PHNL 070306Z 0703/0806 27010KT P6SM VCSH SCT025 BKN050
     FM070800 32012KT 5SM SHRA BKN018 OVC040
     FM071000 35015G23KT P6SM VCSH SCT022 BKN045
     FM072000 01017G25KT P6SM FEW025 BKN050=

USA.gov is the U.S. government's official web portal to all federal, state and local government web resources and services.